NOAA 17 DEB

Satellite information

Favourite Embed

Satellite Type and Status

DEBRISIN ORBIT

Key statistics

Satellite NOAA 17 DEB at a glance.

Uptime

8525

Days in orbit

Revolutions

≈ 14.4

Per day

Orbit

SSO

Sun Synchronous Orbit

Inclination

98.9

Latest

Satellite identification and parameters

Extended collection of information and parameters for NOAA 17 DEB.

Object identification

Identified? True

Debris? True

Object name: NOAA 17 DEB

International designator: 2002-032AT

Object number (NORAD): 48710

Object ID (CCSDS): 48710

Country: UNITED STATES OF AMERICA (US)

Current information (Y/N): Y

RCS size: SMALL

Orbital parameters

Period: 99.983 minutes

Inclination: 98.8662 deg

SMA: 7135.844 km

Apoapsis: 761.962 km

Periapsis: 753.455 km

RAAN: 288.6523 deg

Eccentricy: 0.00059604

Argument of periapsis: 114.193 deg

Mean anomaly: 245.988 deg

Mean motion: 14.40239725 rev/day

Mean motion (dot): 0.00003626 rev/day2

B* drag term: 0.001159901 1/REarth

Two-line elements (TLE)

Creation date: Oct. 26, 2025, 2:54 a.m.

Reference frame: TEME

Reference center: EARTH

Epoch: Oct. 25, 2025, 11:27 p.m. UTC

TLE line 0: 0 NOAA 17 DEB

TLE line 1: 1 48710U 02032AT 25298.97708813 .00003626 00000-0 11599-2 0 9990

TLE line 2: 2 48710 98.8662 288.6523 0005960 114.1930 245.9880 14.40239725241206

Live tracking on map

Real-time ground track for satellite NOAA 17 DEB.

In-orbit conjunctions

A list of the most updated potential collisions computed for object NOAA 17 DEB.

Target Orbit TCA Probability of collision Miss distance Type
NOAA 16 DEB SSO 2025-05-25 17:01:12 0.0001370522 85.0 (m) DEBRIS
COSMOS 1275 DEB LEO 2024-12-09 19:43:40 0.000153005 106.0 (m) DEBRIS

Associated space launch

NOAA M carried weather imagers and microwave and infrared sounders, as well as a SARSAT search-and-rescue package. It had an on-orbit mass of 1475 kg.

NOAA 17 DEB was lifted into orbit during the mission ‘Titan II SLV | NOAA 17’, on board a Titan II SLV space rocket.

The launch took place on June 24, 2002, 6:23 p.m. from Space Launch Complex 4W.

For more information about the launch, click the button.

Launch to space Titan II SLV | NOAA 17
Titan II SLV | NOAA 17

Agency: N/A

Status: Launch Successful

Launch date: June 24, 2002, 6:23 p.m. UTC

Rocket: Titan II SLV

Launch pad: Space Launch Complex 4W

Location: Vandenberg SFB, CA, USA

...

Latest news about this satellite

There are no fresh news available about this satellite. Check back as we update our databases every day.


Newsletter sign-up

Weekly statistics, charts and insights to help you stay on top of the space industry.